Muscle Shoals, AL

5:01 AM CST on December 09, 2019 (GMT -0600)
Northwest Alabama Regional

Weather History for KMSL - October, 2019

Change the Weather History Date:

Monday, October 28, 2019

  Actual Average Record
Temperature  
Mean Temperature 59 °F 58 °F  
Max Temperature 68 °F 70 °F 89 °F (1940)
Min Temperature 50 °F 46 °F 24 °F (1914)
Degree Days  
Heating Degree Days 6 8  
Month to date heating degree days 100 130  
Since 1 July heating degree days 100 145  
Cooling Degree Days 0 1  
Month to date cooling degree days 142 58  
Year to date cooling degree days 2500 1860  
Growing Degree Days 9 (Base 50)    
Moisture  
Dew Point 53 °F    
Average Humidity 77    
Maximum Humidity 93    
Minimum Humidity 61    
Precipitation  
Precipitation 0.00 in 0.12 in 1.53 in (1935)
Month to date precipitation 5.15 3.07  
Year to date precipitation 51.67 42.50  
Snow  
Snow 0.00 in - - ()
Month to date snowfall 0.0  
Since 1 July snowfall 0.0  
Since 1 September snowfall 0.0  
Snow Depth 0.00 in    
Sea Level Pressure  
Sea Level Pressure 30.08 in    
Wind  
Wind Speed 2 mph (SSE)    
Max Wind Speed 7 mph    
Max Gust Speed 12 mph    
Visibility 8 miles    
Events Fog    
T = Trace of Precipitation, MM = Missing Value Source: NWS Daily Summary

Daily Weather History Graph

Daily Weather History Graph

Search for Another Location

Airport or City:

Astronomy

Oct. 28, 2019 Rise Set
Actual Time 7:07 AM CDT 6:00 PM CDT
Civil Twilight 6:41 AM CDT 6:26 PM CDT
Nautical Twilight 6:11 AM CDT 6:56 PM CDT
Astronomical Twilight 5:42 AM CDT 7:25 PM CDT
Moon 7:29 AM CDT (10/28) 6:46 PM CDT (10/28)
Length of Visible Light 11h 45m
Length of Day
10h 53m
New Moon, 0% of the Moon is Illuminated
Oct 28
New Moon
Nov 4
First Quarter
Nov 12
Full
Nov 19
Last Quarter
Nov 26
New

Hourly Weather History & Observations

Time (CDT) Temp. Dew Point Humidity Pressure Visibility Wind Dir Wind Speed Gust Speed Precip Events Conditions
12:53 AM 60.1 °F 55.9 °F 86% 30.06 in 10.0 mi Calm Calm - N/A   Overcast
1:53 AM 62.1 °F 52.0 °F 70% 30.06 in 10.0 mi Calm Calm - N/A   Overcast
2:53 AM 60.1 °F 55.9 °F 86% 30.06 in 10.0 mi Calm Calm - N/A   Overcast
3:53 AM 60.1 °F 55.9 °F 86% 30.06 in 10.0 mi Calm Calm - N/A   Overcast
4:53 AM 60.1 °F 54.0 °F 80% 30.07 in 10.0 mi Calm Calm - N/A   Overcast
5:53 AM 60.1 °F 54.0 °F 80% 30.07 in 10.0 mi Calm Calm - N/A   Overcast
6:53 AM 60.1 °F 53.1 °F 78% 30.09 in 10.0 mi ESE 4.6 mph - N/A   Overcast
7:53 AM 60.1 °F 54.0 °F 80% 30.10 in 10.0 mi Calm Calm - N/A   Overcast
8:53 AM 61.0 °F 53.1 °F 75% 30.11 in 10.0 mi Calm Calm - N/A   Overcast
9:53 AM 61.0 °F 53.1 °F 75% 30.11 in 10.0 mi ESE 3.5 mph - N/A   Overcast
10:53 AM 61.0 °F 53.1 °F 75% 30.12 in 10.0 mi SSE 4.6 mph - N/A   Overcast
11:53 AM 62.1 °F 52.0 °F 70% 30.10 in 10.0 mi SSE 4.6 mph - N/A   Overcast
12:53 PM 63.0 °F 52.0 °F 67% 30.07 in 10.0 mi SE 4.6 mph - N/A   Overcast
1:53 PM 64.0 °F 52.0 °F 65% 30.05 in 10.0 mi Calm Calm - N/A   Overcast
2:53 PM 66.9 °F 53.1 °F 61% 30.04 in 10.0 mi WSW 4.6 mph - N/A   Overcast
3:53 PM 66.0 °F 53.1 °F 63% 30.04 in 10.0 mi Variable 3.5 mph - N/A   Mostly Cloudy
4:53 PM 64.9 °F 54.0 °F 68% 30.05 in 10.0 mi North 3.5 mph - N/A   Overcast
5:46 PM 63.0 °F 54.0 °F 72% 30.05 in 10.0 mi Calm Calm - N/A   Scattered Clouds
5:53 PM 63.0 °F 54.0 °F 72% 30.05 in 10.0 mi Calm Calm - N/A   Partly Cloudy
6:53 PM 57.0 °F 52.0 °F 83% 30.07 in 10.0 mi WSW 3.5 mph - N/A   Clear
7:14 PM 57.9 °F 53.1 °F 84% 30.08 in 10.0 mi Calm Calm - N/A   Mostly Cloudy
7:53 PM 57.0 °F 54.0 °F 89% 30.07 in 10.0 mi Calm Calm - N/A   Mostly Cloudy
8:04 PM 57.0 °F 54.0 °F 89% 30.08 in 10.0 mi Calm Calm - N/A   Scattered Clouds
8:53 PM 55.0 °F 53.1 °F 93% 30.08 in 2.5 mi Calm Calm - N/A   Clear
9:01 PM 55.0 °F 52.0 °F 89% 30.08 in 10.0 mi Calm Calm - N/A   Clear
9:53 PM 52.0 °F 50.0 °F 93% 30.07 in 5.0 mi Calm Calm - N/A   Clear
10:05 PM 53.1 °F 51.1 °F 93% 30.08 in 2.5 mi Calm Calm - N/A   Clear
10:15 PM 53.1 °F 51.1 °F 93% 30.08 in 5.0 mi Calm Calm - N/A   Clear
10:53 PM 52.0 °F 50.0 °F 93% 30.09 in 4.0 mi Calm Calm - N/A   Clear
10:56 PM 52.0 °F 50.0 °F 93% 30.09 in 1.5 mi Calm Calm - N/A   Partly Cloudy
11:04 PM 52.0 °F 50.0 °F 93% 30.09 in 1.0 mi West 3.5 mph - N/A   Mist
11:07 PM 52.0 °F 50.0 °F 93% 30.09 in 2.0 mi West 3.5 mph - N/A   Partly Cloudy
11:15 PM 53.1 °F 51.1 °F 93% 30.09 in 8.0 mi Calm Calm - N/A   Partly Cloudy
11:45 PM 52.0 °F 50.0 °F 93% 30.09 in 2.0 mi SE 3.5 mph - N/A   Mostly Cloudy
11:53 PM 51.1 °F 48.9 °F 92% 30.09 in 0.5 mi SE 3.5 mph - N/A Fog Fog